Miscellaneous Local Product
Issued by NWS North Platte, NE

Home | Current Version | Previous Version | Graphics & Text | Print | Product List | Glossary On
Versions: 1 2 3 4 5 6 7 8 9 10 11 12 13 14 15 16 17 18 19 20 21 22 23 24 25 26 27 28 29 30 31 32 33 34 35 36 37 38 39 40 41 42 43 44 45 46 47 48 49 50
000
AXUS43 KLBF 280410
MISLBF


WESTERN AND NORTH CENTRAL NEBRASKA HOURLY WEATHER ROUNDUP
NATIONAL WEATHER SERVICE NORTH PLATTE NE
1100 PM CDT MON JUN 27 2016

NOTE: "FAIR" INDICATES FEW OR NO CLOUDS BELOW 12,000 FEET WITH NO
SIGNIFICANT WEATHER AND/OR OBSTRUCTIONS TO VISIBILITY.

NOTE: STATIONS NOT REPORTING VARIABLES SUCH AS SKY/WEATHER OR
PRESSURE ARE PROVIDED BY RAWS AND APRS NETWORKS AND ARE NOT UNDER
NATIONAL WEATHER SERVICE QUALITY CONTROL.

...OBSERVATIONS IN AND NEAR THE EASTERN PANHANDLE OF NEBRASKA...

CITY           SKY/WX    TMP DP  RH WIND       PRES   REMARKS
PINE RIDGE     CLOUDY    70  52  52 SE7       30.28R
CHADRON        CLOUDY    62  56  80 S13       30.28F
ALLIANCE       TSTM      63  60  90 E21       30.33F FOG
SIDNEY         CLEAR     63  59  87 NE7       30.36R
CRESCENT LAKE    N/A     67  58  73 NE9         N/A
$$

...OBSERVATIONS IN NORTHERN NEBRASKA AND FAR SOUTHERN SOUTH DAKOTA...

CITY           SKY/WX    TMP DP  RH WIND       PRES   REMARKS
WINNER         FAIR      66  58  75 SE6       30.26R
VALENTINE      CLOUDY    70  57  63 SE12      30.27S
THEDFORD       CLOUDY    68  60  74 E5        30.31R
AINSWORTH      CLOUDY    66  59  78 SE6       30.29S
O`NEILL        CLOUDY    69  61  75 CALM      30.28R
ORD            CLOUDY    67  59  75 CALM      30.25R
BROKEN BOW     CLOUDY    70  56  61 NE10      30.28R
VALENTINE NWR    N/A     67  58  73 E6          N/A
BUTTE            N/A     70  60  70 E3          N/A
HALSEY           N/A     69  58  68 E5          N/A
CHAMBERS         N/A     68  59  74 CALM        N/A
EWING            N/A     66  63  91 CALM        N/A
$$

...OBSERVATIONS IN SOUTHWEST NEBRASKA AND FAR NORTHEAST COLORADO...

CITY           SKY/WX    TMP DP  RH WIND       PRES   REMARKS
IMPERIAL       CLEAR     65  61  87 N6        30.28R
OGALLALA       CLEAR     67  62  84 NE7       30.30R
NORTH PLATTE   CLOUDY    65  61  87 E5        30.27R
MCCOOK         CLOUDY    74  62  66 NE7       30.23R
LEXINGTON      PTCLDY    71  59  66 E7        30.24R
STAPLETON        N/A     67  60  79 CALM        N/A
GOTHENBURG       N/A     71  58  63 E3          N/A
CALLAWAY         N/A     69  58  68 E6          N/A
$$

...OBSERVATIONS IN CENTRAL LINCOLN COUNTY AREA...

CITY           SKY/WX    TMP DP  RH WIND       PRES   REMARKS
N.P. AIRPORT   CLOUDY    65  61  87 E5        30.27R
N.P. DOWNTOWN    N/A     70  62  77 CALM        N/A
N.P. SOUTHEAST   N/A     69  61  76 CALM        N/A
N.P. HILLCREST   N/A     70  60  70 E13         N/A
$$

...SOME OBSERVATIONS FROM AROUND THE REGION...

CITY           SKY/WX    TMP DP  RH WIND       PRES   REMARKS
DENVER         CLOUDY    73  53  49 SE17G23   30.35R THUNDER
LARAMIE        CLEAR     62  48  60 E8        30.47R
CHEYENNE       CLEAR     63  57  81 E6        30.43R
SCOTTSBLUFF    MOCLDY    71  59  65 E12       30.34R
RAPID CITY     CLEAR     66  55  67 E7        30.26R
BISMARCK       CLEAR     59  52  77 CALM      30.29R
PIERRE         CLEAR     67  56  67 E7        30.23R
SIOUX FALLS    CLEAR     66  56  70 CALM      30.24R
OMAHA          CLOUDY    73  65  75 N8        30.18R
GRAND ISLAND   CLOUDY    73  60  63 NE10      30.23R
KANSAS CITY    MOCLDY    79  65  62 N7        30.15R
WICHITA        PTCLDY    80  69  69 CALM      30.14S
OKLAHOMA CITY  MOCLDY    80  71  74 E5        30.14R
DALLAS         CLOUDY    84  71  65 CALM      30.07R
AMARILLO       CLEAR     74  58  57 S10       30.25R
DODGE CITY     CLOUDY    80  67  64 E10       30.16R
HAYS           CLOUDY    79  66  65 SE6       30.16F
GOODLAND       CLEAR     69  60  73 E16       30.26R
$$




USA.gov is the U.S. government's official web portal to all federal, state and local government web resources and services.